Weather Roundup
Issued by NWS

Home | Current Version | Previous Version | Text Only | Print | Product List | Glossary On
Versions: 1 2 3 4 5 6 7 8 9 10 11 12 13 14 15 16 17 18 19 20 21 22 23 24 25 26 27 28 29 30 31 32 33 34 35 36 37 38 39 40 41 42 43 44 45 46 47 48 49 50
000
NZUS93 KARX 240410
HRRWXR

CURRENT HOURLY OBSERVATIONS ACROSS
MUCH OF THE UPPER MISSISSIPPI VALLEY
NATIONAL WEATHER SERVICE LA CROSSE WI
1100 PM CDT SAT SEP 23 2017


...SOUTHEAST MINNESOTA...


CITY           SKY/WX    TMP DP  RH WIND       PRES   REMARKS
ROCHESTER      CLEAR     70  64  81 S7        30.00R
ROCHESTER/MAYO FAIR      75  63  64 SE7       29.99R
WINONA         CLEAR     70  64  83 CALM      29.98S
AUSTIN         CLEAR     73  63  68 SE5       29.98R
ALBERT LEA     PTCLDY    75  64  69 S5        29.97R
DODGE CENTER   PTCLDY    70  63  78 SE6       29.98S
PRESTON        CLEAR     73  62  66 S7        30.01S
OWATONNA       PTCLDY    79  63  57 S9        29.96R
FARIBAULT      MOCLDY    77  64  65 S5        29.95R
$$

...ELSEWHERE IN MINNESOTA...


CITY           SKY/WX    TMP DP  RH WIND       PRES   REMARKS
MINNEAPOLIS    MOCLDY    80  67  64 S9        29.93R
INTNL FALLS    CLOUDY    57  54  89 CALM      30.05R
DULUTH         CLOUDY    65  65 100 N7        29.99F
RED WING       PTCLDY    75  64  69 CALM      29.94S
REDWOOD FALLS  CLOUDY    64  62  93 CALM      29.92S
MANKATO        CLOUDY    74  64  71 S6        29.94R
WORTHINGTON    MOCLDY    62  61  96 CALM      29.94S
FAIRMONT       CLOUDY    72  64  76 S9        29.93S
$$

...SOUTHWEST WISCONSIN...


CITY           SKY/WX    TMP DP  RH WIND       PRES   REMARKS
LA CROSSE      CLOUDY    76  66  71 SW5       29.98S
PRAIRIE DU CHI CLEAR     75  63  66 CALM      30.00S
BOSCOBEL       CLEAR     68  65  90 CALM      30.02R
LONE ROCK      CLEAR     67  65  93 E3        30.03R
PLATTEVILLE    CLEAR     74  65  71 SE7       30.04S
FORT MC COY    CLEAR     67  64  90 CALM      30.02S
CAMP DOUGLAS   CLEAR     65  65 100 SE6       30.02S
MAUSTON-NEW LI CLEAR     68  66  93 CALM      30.03R
VIROQUA        FAIR      76  64  66 SE7       30.04S
WIS DELLS      CLEAR     69  63  81 S3        30.04S
$$

...ELSEWHERE IN WISCONSIN...


CITY           SKY/WX    TMP DP  RH WIND       PRES   REMARKS
MILWAUKEE      CLEAR     76  66  71 S5        30.06R
MADISON        CLEAR     77  66  68 S6        30.04R
GREEN BAY      PTCLDY    75  68  78 S5        30.05R
EAU CLAIRE     CLOUDY    77  66  68 S8        29.97S
BLACK RVR FLS  FAIR      66  65  97 CALM      30.00S
MEDFORD        CLOUDY    67  64  87 SE5       30.05S
WAUSAU         PTCLDY    70  66  87 E6        30.03S
WIS RAPIDS     PTCLDY    73  64  73 S5        30.05R
MARSHFIELD     PTCLDY    71  64  78 SE3       30.04S
RICE LAKE      PTCLDY    73  67  81 SE6       29.99S
$$

...NORTHEAST IOWA...


CITY           SKY/WX    TMP DP  RH WIND       PRES   REMARKS
WATERLOO       CLEAR     75  61  61 SE7       29.97S
DUBUQUE        CLEAR     71  64  78 SE7       30.04S
DECORAH        CLEAR     73  64  73 SE7       30.00S
MASON CITY     CLEAR     70  62  76 S6        29.98S
CHARLES CITY   CLEAR     73  63  68 SE8       29.99S
OELWEIN        CLEAR     72  63  73 SE7       30.01S
$$

...ELSEWHERE IN IOWA...


CITY           SKY/WX    TMP DP  RH WIND       PRES   REMARKS
DES MOINES     PTCLDY    77  65  66 SE7       29.95S
IOWA CITY      CLEAR     73  65  75 CALM      30.02R
FORT DODGE     PTCLDY    79  65  62 S6        29.95S
MARSHALLTOWN   CLEAR     71  64  78 SE7       29.97S
CEDAR RAPIDS   CLEAR     74  64  71 SE5       30.00S
$$

...NORTHERN ILLINOIS...


CITY           SKY/WX    TMP DP  RH WIND       PRES   REMARKS
CHICAGO-OHARE  CLEAR     76  65  68 SE7       30.06R
CHICAGO-MIDWAY CLEAR     80  67  64 E3        30.06R
MOLINE         CLEAR     74  64  71 E3        30.01R
ROCKFORD       CLEAR     75  64  68 CALM      30.06R
PEORIA         CLEAR     78  64  61 SE5       30.03R
$$

NOTE: "FAIR" INDICATES FEW OR NO CLOUDS BELOW 12,000 FEET WITH NO
SIGNIFICANT WEATHER AND/OR OBSTRUCTIONS TO VISIBILITY. WIND
SPEEDS ARE IN MILES-PER-HOUR.




USA.gov is the U.S. government's official web portal to all federal, state and local government web resources and services.